When you browse on this site, cookies collect data to enhance your experience and personalize the content and advertising you see.
Visit our Privacy Policy to learn more. By continuing to use the site, you agree to this use of cookies and data.
  • Em Portugal
  • Lista de países
  • Para 7 dias
  • Temperatura da água
  • Mapas de satélite
  • Mapa do tempo
  • Widgets de tempo
  • user-avatar
    Iniciar Sessão

    Previsão horária em Mohnachi

    Hoje, 20 Março, Quarta-feira

    Tempo Temperatura Precipitação Vento Pressão Humidade
    00:00 +1°C° 0 mm 3 m/s 749 mmHg 81%
    01:00 0°C° 0 mm 3 m/s 749 mmHg 84%
    02:00 0°C° 0 mm 3 m/s 750 mmHg 86%
    03:00 -1°C° 0 mm 3 m/s 750 mmHg 88%
    04:00 -1°C° 0 mm 2 m/s 750 mmHg 90%
    05:00 -1°C° 0 mm 2 m/s 750 mmHg 91%
    06:00 -1°C° 0 mm 3 m/s 750 mmHg 89%
    07:00 -1°C° 0 mm 3 m/s 751 mmHg 86%
    08:00 0°C° 0 mm 3 m/s 751 mmHg 84%
    09:00 -1°C° 0 mm 4 m/s 751 mmHg 78%
    10:00 0°C° 0 mm 4 m/s 752 mmHg 72%
    11:00 +1°C° 0 mm 4 m/s 752 mmHg 67%
    12:00 +1°C° 0 mm 4 m/s 752 mmHg 65%
    13:00 +1°C° 0 mm 4 m/s 752 mmHg 64%
    14:00 +1°C° 0 mm 4 m/s 752 mmHg 62%
    15:00 +1°C° 0 mm 4 m/s 752 mmHg 63%
    16:00 +1°C° 0 mm 4 m/s 752 mmHg 64%
    17:00 0°C° 0 mm 4 m/s 752 mmHg 65%
    18:00 +1°C° 0 mm 3 m/s 752 mmHg 68%
    19:00 +1°C° 0 mm 3 m/s 752 mmHg 71%
    20:00 +1°C° 0 mm 2 m/s 752 mmHg 74%
    21:00 0°C° 0 mm 3 m/s 752 mmHg 73%
    22:00 +1°C° 0 mm 3 m/s 751 mmHg 73%
    23:00 0°C° 0 mm 4 m/s 751 mmHg 72%

    Amanhã, 21 Março, Quinta-feira

    Tempo Temperatura Precipitação Vento Pressão Humidade
    00:00 0°C° 0 mm 4 m/s 751 mmHg 72%
    01:00 0°C° 0 mm 5 m/s 750 mmHg 73%
    02:00 -1°C° 0 mm 6 m/s 750 mmHg 73%
    03:00 -1°C° 0.4 mm 6 m/s 749 mmHg 76%
    04:00 -1°C° 0.4 mm 6 m/s 749 mmHg 79%
    05:00 -1°C° 0.4 mm 6 m/s 749 mmHg 83%
    06:00 -1°C° 0 mm 6 m/s 749 mmHg 84%
    07:00 +1°C° 0 mm 6 m/s 749 mmHg 85%
    08:00 +1°C° 0 mm 5 m/s 749 mmHg 87%
    09:00 +2°C° 0 mm 6 m/s 750 mmHg 83%
    10:00 +2°C° 0 mm 6 m/s 750 mmHg 79%
    11:00 +3°C° 0 mm 6 m/s 750 mmHg 75%
    12:00 +4°C° 0 mm 6 m/s 750 mmHg 69%
    13:00 +5°C° 0 mm 6 m/s 750 mmHg 63%
    14:00 +7°C° 0 mm 6 m/s 750 mmHg 58%
    15:00 +7°C° 0 mm 5 m/s 750 mmHg 59%
    16:00 +7°C° 0 mm 4 m/s 750 mmHg 61%
    17:00 +7°C° 0 mm 3 m/s 750 mmHg 62%
    18:00 +5°C° 0 mm 3 m/s 750 mmHg 67%
    19:00 +4°C° 0 mm 3 m/s 750 mmHg 72%
    20:00 +3°C° 0 mm 3 m/s 750 mmHg 77%
    21:00 +3°C° 0 mm 3 m/s 750 mmHg 79%
    22:00 +3°C° 0 mm 3 m/s 750 mmHg 81%
    23:00 +3°C° 0 mm 3 m/s 750 mmHg 82%

    Depois de amanhã, 22 Março, Sexta-feira

    Tempo Temperatura Precipitação Vento Pressão Humidade
    00:00 +3°C° 0.1 mm 3 m/s 749 mmHg 86%
    01:00 +3°C° 0.1 mm 3 m/s 749 mmHg 89%
    02:00 +3°C° 0.1 mm 4 m/s 749 mmHg 92%
    03:00 +4°C° 0.3 mm 4 m/s 748 mmHg 93%
    04:00 +4°C° 0.3 mm 4 m/s 748 mmHg 94%
    05:00 +4°C° 0.3 mm 4 m/s 747 mmHg 94%
    06:00 +5°C° 0.2 mm 5 m/s 747 mmHg 93%
    07:00 +5°C° 0.2 mm 5 m/s 747 mmHg 93%
    08:00 +5°C° 0.2 mm 6 m/s 747 mmHg 92%
    09:00 +5°C° 0.3 mm 6 m/s 747 mmHg 90%
    10:00 +7°C° 0.3 mm 6 m/s 747 mmHg 89%
    11:00 +7°C° 0.3 mm 6 m/s 748 mmHg 87%
    12:00 +7°C° 0 mm 6 m/s 747 mmHg 86%
    13:00 +8°C° 0 mm 5 m/s 747 mmHg 84%
    14:00 +8°C° 0 mm 5 m/s 747 mmHg 83%
    15:00 +8°C° 0 mm 5 m/s 748 mmHg 85%
    16:00 +7°C° 0 mm 5 m/s 748 mmHg 86%
    17:00 +7°C° 0 mm 4 m/s 748 mmHg 88%
    18:00 +7°C° 0 mm 4 m/s 748 mmHg 90%
    19:00 +6°C° 0 mm 4 m/s 748 mmHg 92%
    20:00 +7°C° 0 mm 3 m/s 748 mmHg 93%
    21:00 +7°C° 0.1 mm 3 m/s 748 mmHg 94%
    22:00 +7°C° 0.1 mm 3 m/s 748 mmHg 95%
    23:00 +7°C° 0.1 mm 3 m/s 748 mmHg 95%

    23 Março, Sábado

    Tempo Temperatura Precipitação Vento Pressão Humidade
    00:00 +7°C° 0.1 mm 3 m/s 748 mmHg 95%
    01:00 +7°C° 0.1 mm 3 m/s 749 mmHg 96%
    02:00 +5°C° 0.1 mm 3 m/s 749 mmHg 96%
    03:00 +5°C° 0 mm 3 m/s 748 mmHg 96%
    04:00 +5°C° 0 mm 3 m/s 748 mmHg 97%
    05:00 +6°C° 0 mm 2 m/s 748 mmHg 97%
    06:00 +5°C° 0 mm 3 m/s 748 mmHg 96%
    07:00 +5°C° 0 mm 3 m/s 748 mmHg 94%
    08:00 +5°C° 0 mm 4 m/s 748 mmHg 93%
    09:00 +6°C° 0 mm 4 m/s 748 mmHg 90%
    10:00 +6°C° 0 mm 4 m/s 747 mmHg 87%
    11:00 +7°C° 0 mm 4 m/s 747 mmHg 83%
    12:00 +7°C° 0 mm 4 m/s 747 mmHg 84%
    13:00 +7°C° 0 mm 4 m/s 746 mmHg 85%
    14:00 +7°C° 0 mm 5 m/s 746 mmHg 85%
    15:00 +8°C° 0 mm 5 m/s 745 mmHg 85%
    16:00 +8°C° 0 mm 5 m/s 744 mmHg 85%
    17:00 +8°C° 0 mm 5 m/s 744 mmHg 85%
    18:00 +8°C° 0.1 mm 5 m/s 744 mmHg 86%
    19:00 +8°C° 0.1 mm 5 m/s 743 mmHg 88%
    20:00 +8°C° 0.1 mm 5 m/s 743 mmHg 90%
    21:00 +7°C° 0.3 mm 5 m/s 743 mmHg 84%
    22:00 +5°C° 0.3 mm 6 m/s 743 mmHg 79%
    23:00 +4°C° 0.3 mm 6 m/s 744 mmHg 74%

    24 Março, Domingo

    Tempo Temperatura Precipitação Vento Pressão Humidade
    00:00 +3°C° 0 mm 6 m/s 744 mmHg 73%
    01:00 +2°C° 0 mm 5 m/s 744 mmHg 73%
    02:00 +1°C° 0 mm 5 m/s 745 mmHg 73%
    03:00 0°C° 0 mm 5 m/s 745 mmHg 74%
    04:00 0°C° 0 mm 5 m/s 745 mmHg 75%
    05:00 -1°C° 0 mm 5 m/s 745 mmHg 76%
    06:00 0°C° 0 mm 5 m/s 745 mmHg 72%
    07:00 -1°C° 0 mm 6 m/s 745 mmHg 67%
    08:00 -1°C° 0 mm 6 m/s 745 mmHg 62%
    09:00 0°C° 0 mm 7 m/s 745 mmHg 57%
    10:00 +1°C° 0 mm 8 m/s 745 mmHg 52%
    11:00 +2°C° 0 mm 9 m/s 745 mmHg 47%
    12:00 +3°C° 0 mm 9 m/s 745 mmHg 45%
    13:00 +3°C° 0 mm 9 m/s 744 mmHg 43%
    14:00 +5°C° 0 mm 9 m/s 744 mmHg 40%
    15:00 +4°C° 0 mm 8 m/s 744 mmHg 42%
    16:00 +4°C° 0 mm 7 m/s 744 mmHg 45%
    17:00 +3°C° 0 mm 6 m/s 744 mmHg 47%
    18:00 +2°C° 0 mm 5 m/s 744 mmHg 52%
    19:00 +1°C° 0 mm 5 m/s 744 mmHg 57%
    20:00 0°C° 0 mm 4 m/s 744 mmHg 63%
    21:00 -1°C° 0 mm 4 m/s 743 mmHg 66%
    22:00 0°C° 0 mm 3 m/s 743 mmHg 68%
    23:00 -1°C° 0 mm 3 m/s 743 mmHg 71%

    25 Março, Segunda-feira

    Tempo Temperatura Precipitação Vento Pressão Humidade
    00:00 -1°C° 0 mm 3 m/s 742 mmHg 72%
    01:00 -1°C° 0 mm 3 m/s 742 mmHg 73%
    02:00 -1°C° 0 mm 3 m/s 741 mmHg 75%
    03:00 -1°C° 0 mm 3 m/s 741 mmHg 76%
    04:00 -1°C° 0 mm 3 m/s 740 mmHg 77%
    05:00 -2°C° 0 mm 4 m/s 739 mmHg 79%
    06:00 -2°C° 0 mm 4 m/s 739 mmHg 74%
    07:00 -1°C° 0 mm 5 m/s 738 mmHg 70%
    08:00 -1°C° 0 mm 6 m/s 737 mmHg 66%
    09:00 -1°C° 0 mm 6 m/s 736 mmHg 62%
    10:00 +1°C° 0 mm 6 m/s 736 mmHg 59%
    11:00 +2°C° 0 mm 7 m/s 735 mmHg 56%
    12:00 +2°C° 0.2 mm 7 m/s 734 mmHg 58%
    13:00 +3°C° 0.2 mm 7 m/s 733 mmHg 59%
    14:00 +2°C° 0.2 mm 8 m/s 732 mmHg 61%
    15:00 +2°C° 0.5 mm 7 m/s 731 mmHg 67%
    16:00 +2°C° 0.5 mm 7 m/s 731 mmHg 72%
    17:00 0°C° 0.5 mm 7 m/s 730 mmHg 78%
    18:00 -1°C° 0.1 mm 6 m/s 730 mmHg 75%
    19:00 -2°C° 0.1 mm 6 m/s 730 mmHg 72%
    20:00 -3°C° 0.1 mm 6 m/s 731 mmHg 70%
    21:00 -4°C° 0 mm 6 m/s 731 mmHg 71%
    22:00 -4°C° 0 mm 6 m/s 731 mmHg 72%
    23:00 -5°C° 0 mm 6 m/s 732 mmHg 74%
    Mostrar mais